Terminal Aerodrome Forecast
Issued by NWS

Current Version | Previous Version | Graphics & Text | Print | Product List | Glossary On
Versions: 1 2 3 4 5 6 7 8 9 10 11 12 13 14 15 16 17 18 19 20 21 22 23 24 25 26
000
FTUS41 KILN 291000 AAB
TAFLUK
TAF AMD
KLUK 291001Z 2910/3006 15003KT P6SM SCT060 BKN250
      TEMPO 2910/2913 3SM BR
     FM291300 19008KT P6SM SCT030 BKN250
     FM291700 19010G18KT P6SM SCT040
     FM292000 19010G18KT P6SM VCTS BKN040CB
     FM300000 19006KT P6SM SCT050=

USA.gov is the U.S. government's official web portal to all federal, state and local government web resources and services.